Location: Conjunto Santa Maria
(19.9513°S, 43.9599°W)
Time: 13:36:56
(UTC+00:00)

Cosmos 923 Rocket - Pass Details

Date: 21 January 2021
Orbit: 758 x 785 km, 74.0° (Epoch: 04 March)

Event Time Altitude Azimuth Distance (km) Brightness Sun altitude
Rises 22:54:14 0° 353° (N) 3,231 7.0 -16.4°
Reaches altitude 10° 22:56:37 10° 356° (N) 2,306 6.2 -16.9°
Maximum altitude 23:01:48 67° 78° (ENE) 835 3.9 -18.0°
Drops below altitude 10° 23:07:01 10° 159° (SSE) 2,313 6.6 -19.1°
Sets 23:09:24 0° 162° (SSE) 3,242 7.4 -19.5°
